Regional Weather Roundup
Issued by NWS State College, PA

Home | Current Version | Previous Version | Text Only | Print | Product List | Glossary On
Versions: 1 2 3 4 5 6 7 8 9 10 11 12 13 14 15 16 17 18 19 20 21 22 23 24 25 26 27 28 29 30 31 32 33 34 35 36 37 38 39 40 41 42 43 44 45 46 47 48 49 50
000
ASUS41 KCTP 010810
RWRCTP

REGIONAL WEATHER ROUNDUP
NATIONAL WEATHER SERVICE STATE COLLEGE PA
400 AM EDT FRI AUG 01 2014

Note: "fair" indicates few or no clouds below 12,000 feet with no
significant weather and/or obstructions to visibility.

* = STATION THAT DOES NOT REPORT PRECIPITATION /E.G. RAIN...SNOW...ETC/
    THUNDER OR FOG.

PAZ002>004-007>009-013>016-020>023-029>032-010900-
WESTERN PENNSYLVANIA

CITY           SKY/WX    TMP DP  RH WIND       PRES   REMARKS
ERIE           CLEAR     65  54  67 S10       30.08R
MEADVILLE      PTCLDY    62  57  83 VRB5      30.12S
FRANKLIN*      CLEAR     59  55  88 S6        30.14F
NEW CASTLE     FAIR      57  57 100 CALM      30.13S FOG
BEAVER COUNTY  NOT AVBL
BUTLER*        CLEAR     57  54  88 CALM      30.15S
PITTSBURGH INT PTCLDY    59  58  96 S3        30.13S
PITTSBURGH     CLEAR     64  60  87 S5        30.13S FOG
INDIANA*       MOCLDY    61  59  94 CALM      30.19S
LATROBE        CLEAR     57  57 100 CALM      30.15S FOG
WASHINGTON CO* CLOUDY    55  54  94 CALM      30.14S VSB 1/2
$$

PAZ004>006-010>012-017>019-024>028-033>037-041-042-045-046-049>053-010900-
CENTRAL PENNSYLVANIA

CITY           SKY/WX    TMP DP  RH WIND       PRES   REMARKS
BRADFORD       CLOUDY    49  48  97 SE3       30.16S FOG
DUBOIS         CLEAR     58  57  97 SE3       30.15S FOG
CLEARFIELD     FOG       55  55 100 CALM      30.17S VSB 1/4
JOHNSTOWN      MOCLDY    59  55  87 SW5       30.19S
ALTOONA        PTCLDY    58  58 100 CALM      30.17S FOG
STATE COLLEGE  FOG       58  57  99 CALM      30.16S VSB<1/4
WILLIAMSPORT   CLOUDY    63  61  93 CALM      30.14S FOG
SELINSGROVE    CLOUDY    60  59  96 CALM      30.15S FOG
FT INDIANTOWN  PTCLDY    62  62 100 N2        30.14F
CAPITAL CITY   PTCLDY    63  62  97 CALM      30.13S
HARRISBURG     PTCLDY    67  63  87 CALM      30.12
YORK           PTCLDY    62  61  96 SE3       30.13F FOG
$$

PAZ038>040-043-044-047-048-054-055-060>062-067>071-010900-
EASTERN PENNSYLVANIA

CITY           SKY/WX    TMP DP  RH WIND       PRES   REMARKS
SCRANTON       PTCLDY    63  58  83 E3        30.16R
MOUNT POCONO   MOCLDY    63  59  87 W6        30.20S
ALLENTOWN      PTCLDY    64  61  90 CALM      30.15S
QUAKERTOWN*    MOSUNNY   63  61  94 CALM      30.17S
READING        PTCLDY    66  62  87 CALM      30.14R
LANCASTER      CLOUDY    67  64  90 E5        30.14F FOG
COATESVILLE    MOSUNNY   66  66 100 SE3       30.17S FOG
POTTSTOWN      PTCLDY    65  63  93 CALM      30.17S
BLUE BELL      PTCLDY    72  68  88 S6        30.16R
DOYLESTOWN     PTCLDY    67  66  97 S5        30.16R
WILLOW GROVE   NOT AVBL
NORTH PHILA    PTCLDY    71  65  81 SE3       30.18R
PHILADELPHIA   CLOUDY    72  67  84 S7        30.17R
$$



USA.gov is the U.S. government's official web portal to all federal, state and local government web resources and services.